Tarboro, NC

8:30 AM EDT on March 25, 2017 (GMT -0400)
Tarboro-edgecombe

Weather History for KETC - March, 2014

Change the Weather History Date:

Monday, March 24, 2014

  Actual Average Record
Temperature  
Mean Temperature 39 °F -  
Max Temperature 78 °F 65 °F 85 °F (1991)
Min Temperature 31 °F 37 °F 21 °F (1992)
Degree Days  
Heating Degree Days 26    
Moisture  
Dew Point 24 °F    
Average Humidity 59    
Maximum Humidity 97    
Minimum Humidity 29    
Precipitation  
Precipitation 0.00 in - - ()
Sea Level Pressure  
Sea Level Pressure 30.22 in    
Wind  
Wind Speed 4 mph (NNE)    
Max Wind Speed 14 mph    
Max Gust Speed 18 mph    
Visibility 9 miles    
Events      
Averages and records for this station are not official NWS values.
T = Trace of Precipitation, MM = Missing Value Source: NWS Daily Summary

Daily Weather History Graph

Daily Weather History Graph

Search for Another Location

Airport or City:

Trip Planner

Search our weather history database for the weather conditions in past years. The results will help you decide how hot, cold, wet, or windy it might be!

Date:

Astronomy

Mar. 24, 2014 Rise Set
Actual Time 7:08 AM EDT 7:25 PM EDT
Civil Twilight 6:42 AM EDT 7:50 PM EDT
Nautical Twilight 6:12 AM EDT 8:20 PM EDT
Astronomical Twilight 5:42 AM EDT 8:51 PM EDT
Moon 2:25 AM EDT (3/24) 12:58 PM EDT (3/24)
Length of Visible Light 13h 08m
Length of Day
12h 17m
Last Quarter, 43% of the Moon is Illuminated
Mar 24
Last Quarter
Mar 30
New
Apr 7
First Quarter
Apr 15
Full
Apr 22
Last Quarter

Hourly Weather History & Observations

Time (EDT) Temp. Windchill Dew Point Humidity Pressure Visibility Wind Dir Wind Speed Gust Speed Precip Events Conditions
12:15 AM 35.6 °F - 33.8 °F 93% 30.16 in 7.0 mi Calm Calm - N/A   Clear
12:35 AM 35.1 °F - 33.6 °F 94% 30.16 in 4.0 mi Calm Calm - N/A   Clear
12:55 AM 34.7 °F - 33.4 °F 95% 30.16 in 2.5 mi Calm Calm - N/A   Clear
1:15 AM 34.2 °F - 32.9 °F 95% 30.17 in 2.5 mi Calm Calm - N/A   Scattered Clouds
1:35 AM 33.4 °F 30.4 °F 32.4 °F 96% 30.18 in 2.0 mi West 3.5 mph - N/A   Overcast
1:55 AM 34.2 °F - 33.1 °F 96% 30.18 in 3.0 mi Calm Calm - N/A   Mostly Cloudy
2:15 AM 34.2 °F - 33.1 °F 96% 30.18 in 2.5 mi Calm Calm - N/A   Mostly Cloudy
2:35 AM 34.0 °F - 32.9 °F 96% 30.18 in 1.5 mi Calm Calm - N/A   Mostly Cloudy
2:55 AM 34.0 °F - 33.1 °F 96% 30.19 in 0.8 mi Calm Calm - N/A   Mostly Cloudy
3:15 AM 34.2 °F - 33.3 °F 97% 30.19 in 3.0 mi Calm Calm - N/A   Overcast
3:35 AM 34.5 °F - 33.4 °F 96% 30.19 in 2.5 mi Calm Calm - N/A   Overcast
3:55 AM 35.2 °F - 34.3 °F 97% 30.19 in 4.0 mi Calm Calm - N/A   Overcast
4:15 AM 36.3 °F 31.6 °F 35.1 °F 95% 30.19 in 10.0 mi North 5.8 mph - N/A   Overcast
4:35 AM 36.5 °F 29.7 °F 33.6 °F 89% 30.20 in 10.0 mi NNE 9.2 mph - N/A   Overcast
4:55 AM 36.5 °F 29.7 °F 30.7 °F 80% 30.21 in 10.0 mi NNE 9.2 mph - N/A   Overcast
5:15 AM 35.4 °F 27.3 °F 27.5 °F 73% 30.22 in 10.0 mi NNE 11.5 mph 17.3 mph N/A   Mostly Cloudy
5:35 AM 34.5 °F 27.3 °F 24.4 °F 67% 30.23 in 10.0 mi NNE 9.2 mph - N/A   Scattered Clouds
5:55 AM 33.8 °F 27.7 °F 24.4 °F 69% 30.24 in 10.0 mi NNE 6.9 mph - N/A   Clear
6:15 AM 33.1 °F 27.7 °F 24.3 °F 70% 30.25 in 10.0 mi North 5.8 mph - N/A   Clear
6:35 AM 32.4 °F 27.9 °F 23.9 °F 71% 30.26 in 10.0 mi North 4.6 mph - N/A   Clear
6:55 AM 32.0 °F 27.5 °F 23.4 °F 70% 30.27 in 10.0 mi North 4.6 mph - N/A   Clear
7:15 AM 31.6 °F 28.3 °F 22.8 °F 70% 30.27 in 10.0 mi North 3.5 mph - N/A   Clear
7:35 AM 31.5 °F 25.8 °F 23.0 °F 71% 30.28 in 10.0 mi North 5.8 mph - N/A   Clear
7:55 AM 32.0 °F 27.5 °F 23.0 °F 69% 30.29 in 10.0 mi NNE 4.6 mph - N/A   Clear
8:15 AM 32.9 °F 27.5 °F 22.8 °F 66% 30.30 in 10.0 mi NNE 5.8 mph - N/A   Clear
8:35 AM 33.6 °F 25.6 °F 23.2 °F 66% 30.30 in 10.0 mi NNE 10.4 mph - N/A   Clear
8:55 AM 34.2 °F 24.8 °F 20.5 °F 57% 30.31 in 10.0 mi NNE 13.8 mph - N/A   Clear
9:15 AM 34.9 °F 28.3 °F 17.8 °F 50% 30.31 in 10.0 mi NNE 8.1 mph 18.4 mph N/A   Clear
9:35 AM 35.6 °F 28.0 °F 17.6 °F 48% 30.32 in 10.0 mi NNE 10.4 mph - N/A   Clear
9:55 AM 36.7 °F 30.5 °F 17.8 °F 46% 30.32 in 10.0 mi NNE 8.1 mph - N/A   Clear
10:15 AM 37.6 °F 30.5 °F 18.1 °F 45% 30.32 in 10.0 mi North 10.4 mph - N/A   Clear
10:35 AM 38.1 °F 31.7 °F 18.0 °F 44% 30.32 in 10.0 mi North 9.2 mph - N/A   Clear
10:55 AM 39.2 °F 33.6 °F 18.7 °F 44% 30.31 in 10.0 mi North 8.1 mph 16.1 mph N/A   Clear
11:15 AM 39.6 °F 33.5 °F 18.7 °F 43% 30.31 in 10.0 mi North 9.2 mph - N/A   Clear
11:35 AM 40.3 °F 34.4 °F 18.0 °F 41% 30.30 in 10.0 mi NNW 9.2 mph - N/A   Clear
11:55 AM 40.5 °F 36.5 °F 17.4 °F 39% 30.29 in 10.0 mi North 5.8 mph - N/A   Clear
12:15 PM 41.7 °F 37.3 °F 17.4 °F 38% 30.29 in 10.0 mi NNE 6.9 mph - N/A   Clear
12:35 PM 42.4 °F 39.6 °F 17.4 °F 37% 30.28 in 10.0 mi North 4.6 mph - N/A   Clear
12:55 PM 42.8 °F 38.6 °F 16.9 °F 35% 30.27 in 10.0 mi NNW 6.9 mph - N/A   Clear
1:15 PM 43.3 °F 37.7 °F 17.1 °F 35% 30.26 in 10.0 mi NE 10.4 mph - N/A   Clear
1:35 PM 44.2 °F 39.7 °F 17.6 °F 34% 30.24 in 10.0 mi NE 8.1 mph - N/A   Clear
2:15 PM 44.4 °F 42.9 °F 17.1 °F 33% 30.23 in 10.0 mi NNE 3.5 mph - N/A   Clear
2:35 PM 45.3 °F 43.0 °F 17.2 °F 33% 30.22 in 10.0 mi North 4.6 mph - N/A   Clear
2:55 PM 45.7 °F 43.4 °F 17.2 °F 32% 30.21 in 10.0 mi WNW 4.6 mph - N/A   Clear
3:15 PM 46.2 °F 43.3 °F 16.9 °F 31% 30.20 in 10.0 mi WNW 5.8 mph - N/A   Clear
3:35 PM 46.6 °F - 16.7 °F 30% 30.19 in 10.0 mi NNE 6.9 mph - N/A   Clear
3:55 PM 47.3 °F - 16.0 °F 29% 30.18 in 10.0 mi NW 5.8 mph - N/A   Clear
4:15 PM 47.7 °F - 16.3 °F 29% 30.18 in 10.0 mi Calm Calm - N/A   Clear
4:35 PM 47.7 °F - 17.1 °F 30% 30.17 in 10.0 mi ESE 3.5 mph - N/A   Clear
4:55 PM 47.5 °F - 16.5 °F 29% 30.17 in 10.0 mi Calm Calm - N/A   Clear
5:15 PM 47.5 °F - 16.7 °F 29% 30.17 in 10.0 mi WNW 5.8 mph - N/A   Clear
5:35 PM 47.5 °F - 16.3 °F 29% 30.17 in 10.0 mi Calm Calm - N/A   Clear
5:55 PM 46.9 °F - 16.0 °F 29% 30.17 in 10.0 mi Calm Calm - N/A   Clear
6:15 PM 47.1 °F - 16.2 °F 29% 30.17 in 10.0 mi Calm Calm - N/A   Clear
6:35 PM 45.9 °F - 16.9 °F 31% 30.17 in 10.0 mi Calm Calm - N/A   Clear
6:55 PM 45.5 °F - 17.8 °F 33% 30.17 in 10.0 mi Calm Calm - N/A   Clear
7:15 PM 45.1 °F - 19.6 °F 36% 30.17 in 10.0 mi Calm Calm - N/A   Clear
7:35 PM 43.9 °F 42.3 °F 20.7 °F 40% 30.17 in 10.0 mi SE 3.5 mph - N/A   Clear
7:55 PM 42.8 °F 41.1 °F 22.3 °F 44% 30.17 in 10.0 mi SE 3.5 mph - N/A   Clear
8:15 PM 41.9 °F 40.0 °F 23.7 °F 49% 30.16 in 10.0 mi SE 3.5 mph - N/A   Clear
8:35 PM 41.4 °F 39.4 °F 23.9 °F 50% 30.17 in 10.0 mi SE 3.5 mph - N/A   Clear
8:55 PM 40.3 °F - 25.5 °F 56% 30.17 in 10.0 mi Calm Calm - N/A   Clear
9:15 PM 38.5 °F - 28.0 °F 66% 30.17 in 10.0 mi Calm Calm - N/A   Clear
9:35 PM 37.0 °F - 31.1 °F 79% 30.17 in 10.0 mi Calm Calm - N/A   Clear
9:55 PM 36.5 °F - 30.4 °F 78% 30.17 in 10.0 mi Calm Calm - N/A   Clear
10:15 PM 36.3 °F 33.7 °F 29.3 °F 76% 30.17 in 10.0 mi ESE 3.5 mph - N/A   Clear
10:35 PM 36.9 °F 33.1 °F 28.2 °F 71% 30.17 in 10.0 mi SE 4.6 mph - N/A   Clear
10:55 PM 37.6 °F 34.0 °F 26.1 °F 63% 30.17 in 10.0 mi ESE 4.6 mph - N/A   Clear
11:15 PM 37.4 °F 32.8 °F 27.9 °F 68% 30.17 in 10.0 mi ESE 5.8 mph - N/A   Clear
11:35 PM 37.4 °F 31.4 °F 30.0 °F 75% 30.17 in 10.0 mi ESE 8.1 mph - N/A   Clear
11:55 PM 36.9 °F 31.4 °F 30.2 °F 77% 30.17 in 10.0 mi ESE 6.9 mph - N/A   Clear